Location: NJAA Observatory
(40.6819°N, 74.8979°W)
Time: 23:06:15
(UTC-04:00)

Vanguard 1 - All Passes

Search period start: 26 April 2017 00:00
Search period end: 06 May 2017 00:00
Orbit: 654 x 3830 km, 34.3° (Epoch: 25 April)

Date Brightness Start Highest point End Pass type
(mag) Time Alt. Az. Time Alt. Az. Time Alt. Az.
26 Apr - 01:33:45 10° WSW 01:56:58 66° SSE 02:15:01 10° E visible
26 Apr - 04:00:13 10° W 04:22:42 70° S 04:36:31 10° ESE visible
26 Apr - 06:28:38 10° W 06:45:33 44° SW 06:55:26 10° SSE daylight
26 Apr - 09:01:49 10° WSW 09:04:34 11° WSW 09:07:01 10° SW daylight
26 Apr - 21:16:06 10° S 21:29:16 21° SE 21:43:53 10° E visible
26 Apr - 23:32:04 10° SW 23:52:34 50° SSE 00:12:44 10° E visible
27 Apr - 01:55:03 10° WSW 02:18:32 70° S 02:36:18 10° E visible
27 Apr - 04:22:02 10° W 04:44:05 66° SSW 04:57:27 10° ESE visible
27 Apr - 06:50:45 10° W 07:06:12 36° SW 07:15:36 10° SSE daylight
27 Apr - 21:34:31 10° S 21:49:50 28° SE 22:07:14 10° E visible
27 Apr - 23:52:36 10° SW 00:13:48 56° SSE 00:34:20 10° E visible
28 Apr - 02:16:32 10° WSW 02:40:09 72° S 02:57:33 10° E visible
28 Apr - 04:43:53 10° W 05:05:20 61° SSW 05:18:18 10° SE visible
28 Apr - 07:13:08 10° W 07:26:38 28° SW 07:35:25 10° S daylight
28 Apr - 21:53:46 10° SSW 22:10:31 35° SE 22:29:49 10° E visible
29 Apr - 00:13:24 10° SW 00:35:11 63° SSE 00:55:51 10° E visible
29 Apr - 02:38:08 10° W 03:01:45 72° S 03:18:43 10° ESE visible
29 Apr - 05:05:46 10° W 05:26:24 54° SSW 05:38:58 10° SE visible
29 Apr - 07:36:01 10° W 07:46:56 21° SW 07:54:39 10° S daylight
29 Apr - 20:01:54 10° SSE 20:09:36 14° ESE 20:18:14 10° E visible
29 Apr - 22:13:33 10° SSW 22:31:20 43° SE 22:51:57 10° E visible
30 Apr - 00:34:27 10° WSW 00:56:42 67° SSE 01:17:17 10° E visible
30 Apr - 02:59:48 10° W 03:23:19 71° S 03:39:50 10° ESE visible
30 Apr - 05:27:43 10° W 05:47:19 47° SW 05:59:25 10° SE visible
30 Apr - 08:00:04 10° W 08:07:07 14° WSW 08:12:45 10° SSW daylight
30 Apr - 20:18:30 10° SSE 20:29:55 20° SE 20:43:38 10° E visible
30 Apr - 22:33:45 10° SW 22:52:20 50° SSE 23:13:50 10° E visible
01 May - 00:55:40 10° WSW 01:18:18 71° S 01:38:41 10° E visible
01 May - 03:21:32 10° W 03:44:48 68° SSW 04:00:51 10° ESE visible
01 May - 05:49:50 10° W 06:08:01 39° SW 06:19:38 10° SSE daylight
01 May - 20:36:57 10° S 20:50:19 27° SE 21:07:09 10° E visible
01 May - 22:54:15 10° SW 23:13:29 57° SSE 23:35:33 10° E visible
02 May - 01:17:03 10° WSW 01:39:58 73° S 02:00:02 10° E visible
02 May - 03:43:17 10° W 04:06:09 63° SSW 04:21:44 10° SE visible
02 May - 06:12:11 10° W 06:28:32 31° SW 06:39:27 10° S daylight
02 May - 20:56:14 10° SSW 21:10:50 34° SE 21:29:51 10° E visible
02 May - 23:15:01 10° SW 23:34:48 63° SSE 23:57:11 10° E visible
03 May - 01:38:31 10° W 02:01:39 73° S 02:21:19 10° ESE visible
03 May - 04:05:06 10° W 04:27:20 56° SSW 04:42:27 10° SE visible
03 May - 06:34:59 10° W 06:48:53 24° SW 06:58:47 10° S daylight
03 May - 19:05:43 10° SE 19:10:49 12° ESE 19:16:33 10° ESE daylight
03 May - 21:16:02 10° SSW 21:31:31 42° SE 21:52:06 10° E visible
03 May - 23:35:59 10° WSW 23:56:16 68° SSE 00:18:45 10° E visible
04 May - 02:00:04 10° W 02:23:17 71° S 02:42:32 10° ESE visible
04 May - 04:26:59 10° W 04:48:19 49° SSW 05:02:56 10° SE visible
04 May - 06:58:43 10° W 07:09:06 17° SW 07:17:11 10° SSW daylight
04 May - 19:21:44 10° SSE 19:31:00 18° SE 19:42:42 10° E daylight
04 May - 21:36:13 10° SW 21:52:22 49° SSE 22:14:06 10° E visible
04 May - 23:57:07 10° WSW 00:17:51 71° S 00:40:16 10° E visible
05 May - 02:21:40 10° W 02:44:51 68° SSW 03:03:37 10° ESE visible
05 May - 04:49:01 10° W 05:09:08 42° SW 05:23:09 10° SSE visible
05 May - 07:25:17 10° WSW 07:29:14 11° WSW 07:32:49 10° SW daylight
05 May - 19:40:07 10° S 19:51:16 25° SE 20:06:25 10° E daylight
05 May - 21:56:41 10° SW 22:13:25 56° SSE 22:35:56 10° E visible
